Date String (YYYY-MM-DD hh:mm:ss) UTC,Instrument flags,Ambient pressure (hPa),Sample flow (lpm),Bypass flow (lpm),Sample temperature (°C),Ambient temperature (°C),ASC tube jacket temperature (°C),LED temperature (°C),Box temperature (°C),Sample RH (%),Span deviation,Mass concentration (μg/m³),Mass concentration (μg/m³),Mass concentration (μg/m³)
DateTimeUTC,F1_M11,P_M11,Q1_M11,Q2_M11,T1_M11,T2_M11,T3_M11,T4_M11,T5_M11,U1_M11,ZSPAN_M11,X0_M11,X2_M11,X1_M11
2021-08-20 06:00:00,,0824.0,4.99,0.00,30.1,29.2,00.0,39.0,31.9,26.2,0000.0,0004.23,0003.01,0002.51
2021-08-20 06:01:00,,0824.0,5.01,0.00,30.0,28.0,00.0,39.0,31.5,26.3,0000.0,0004.01,0002.94,0002.46
2021-08-20 06:02:00,,0824.0,5.00,0.00,29.9,26.5,00.0,39.0,31.1,26.5,0000.0,0004.69,0002.87,0002.43
2021-08-20 06:03:00,,0824.0,5.00,0.00,29.7,26.3,00.0,39.0,31.1,26.7,0000.0,0004.80,0002.86,0002.42
2021-08-20 06:04:00,,0823.9,5.00,0.00,29.6,26.7,00.0,38.9,31.1,26.7,0000.0,0004.74,0002.84,0002.42
2021-08-20 06:05:00,,0824.0,5.00,0.00,29.6,27.1,00.0,38.9,31.2,26.8,0000.0,0005.22,0002.81,0002.41
2021-08-20 06:06:00,,0824.0,5.00,0.00,29.6,27.4,00.0,38.9,31.3,27.8,0000.0,0005.44,0002.83,0002.42
2021-08-20 06:07:00,,0824.0,5.00,0.00,29.6,27.7,00.0,38.8,31.3,27.1,0000.0,0005.47,0002.83,0002.42
2021-08-20 06:08:00,,0824.0,4.99,0.00,29.6,27.9,00.0,38.8,31.4,25.8,0000.0,0005.42,0002.80,0002.39
2021-08-20 06:09:00,,0824.1,5.00,0.00,29.7,28.1,00.0,38.8,31.4,25.7,0000.0,0005.27,0002.71,0002.34
2021-08-20 06:10:00,,0824.1,4.99,0.00,29.7,28.3,00.0,38.8,31.4,25.6,0000.0,0005.14,0002.64,0002.29
2021-08-20 06:11:00,,0824.1,5.00,0.00,29.7,28.4,00.0,38.8,31.5,26.5,0000.0,0005.33,0002.64,0002.25
2021-08-20 06:12:00,,0824.1,5.00,0.00,29.7,28.5,00.0,38.8,31.5,26.2,0000.0,0005.33,0002.61,0002.20
2021-08-20 06:13:00,,0824.1,5.01,0.00,29.8,28.6,00.0,38.8,31.6,26.1,0000.0,0004.37,0002.53,0002.13
2021-08-20 06:14:00,,0824.1,5.00,0.00,29.8,28.7,00.0,38.8,31.6,26.6,0000.0,0004.13,0002.44,0002.06
2021-08-20 06:15:00,,0824.1,5.00,0.00,29.8,28.8,00.0,38.9,31.6,27.5,0000.0,0004.03,0002.37,0002.01
2021-08-20 06:16:00,,0824.1,5.00,0.00,29.8,28.8,00.0,38.9,31.7,27.7,0000.0,0003.33,0002.33,0001.97
2021-08-20 06:17:00,,0824.1,4.99,0.00,29.9,28.9,00.0,38.9,31.7,27.5,0000.0,0003.18,0002.28,0001.95
2021-08-20 06:18:00,,0824.1,5.00,0.00,29.9,29.0,00.0,38.9,31.7,26.1,0000.0,0004.03,0002.24,0001.92
2021-08-20 06:19:00,,0824.1,5.01,0.00,29.9,29.0,00.0,38.9,31.8,25.3,0000.0,0003.95,0002.20,0001.91
2021-08-20 06:20:00,,0824.0,5.00,0.00,29.9,29.0,00.0,38.9,31.8,25.9,0000.0,0003.95,0002.19,0001.91
2021-08-20 06:21:00,,0824.1,4.99,0.00,30.0,29.1,00.0,39.0,31.8,25.8,0000.0,0004.04,0002.19,0001.90
2021-08-20 06:22:00,,0824.0,5.01,0.00,30.0,29.1,00.0,39.0,31.8,26.0,0000.0,0003.75,0002.12,0001.90
2021-08-20 06:23:00,,0824.0,4.99,0.00,30.0,29.2,00.0,39.0,31.9,25.5,0000.0,0003.70,0002.12,0001.91
2021-08-20 06:24:00,,0824.1,5.00,0.00,30.0,29.2,00.0,39.0,31.9,25.4,0000.0,0003.84,0002.19,0001.94
2021-08-20 06:25:00,,0824.1,4.99,0.00,30.1,29.2,00.0,39.0,31.9,25.8,0000.0,0003.89,0002.22,0001.96
2021-08-20 06:26:00,,0824.1,5.01,0.00,30.0,28.2,00.0,39.1,31.6,26.3,0000.0,0004.10,0002.30,0001.99
2021-08-20 06:27:00,,0824.1,5.00,0.00,29.9,26.6,00.0,39.0,31.2,26.4,0000.0,0004.37,0002.35,0002.01
2021-08-20 06:28:00,,0824.1,5.00,0.00,29.8,26.3,00.0,39.0,31.1,26.8,0000.0,0004.46,0002.39,0002.02
2021-08-20 06:29:00,,0824.1,5.00,0.00,29.7,26.7,00.0,39.0,31.1,27.1,0000.0,0003.66,0002.44,0002.06
2021-08-20 06:30:00,,0824.1,5.00,0.00,29.6,27.1,00.0,38.9,31.2,26.9,0000.0,0003.55,0002.49,0002.12
2021-08-20 06:31:00,,0824.1,5.00,0.00,29.6,27.4,00.0,38.9,31.3,26.4,0000.0,0003.80,0002.56,0002.16
2021-08-20 06:32:00,,0824.1,4.99,0.00,29.6,27.7,00.0,38.9,31.3,27.1,0000.0,0003.95,0002.61,0002.19
2021-08-20 06:33:00,,0824.1,5.01,0.00,29.6,27.9,00.0,38.8,31.4,27.2,0000.0,0004.08,0002.69,0002.23
2021-08-20 06:34:00,,0824.1,4.99,0.00,29.7,28.1,00.0,38.8,31.4,27.3,0000.0,0004.25,0002.80,0002.31
2021-08-20 06:35:00,,0824.1,4.99,0.00,29.7,28.3,00.0,38.8,31.4,27.6,0000.0,0004.25,0002.82,0002.36
2021-08-20 06:36:00,,0824.1,5.01,0.00,29.7,28.4,00.0,38.8,31.5,28.1,0000.0,0004.34,0002.89,0002.41
2021-08-20 06:37:00,,0824.1,5.00,0.00,29.7,28.5,00.0,38.8,31.5,27.8,0000.0,0004.49,0002.95,0002.47
2021-08-20 06:38:00,,0824.1,5.00,0.00,29.8,28.6,00.0,38.9,31.6,28.1,0000.0,0004.44,0002.97,0002.51
2021-08-20 06:39:00,,0824.1,5.00,0.00,29.8,28.7,00.0,38.9,31.6,27.8,0000.0,0004.60,0003.04,0002.55
2021-08-20 06:40:00,,0824.1,5.00,0.00,29.8,28.8,00.0,38.9,31.7,27.8,0000.0,0004.73,0003.08,0002.59
2021-08-20 06:41:00,,0824.1,5.01,0.00,29.9,28.9,00.0,38.9,31.7,28.0,0000.0,0004.84,0003.10,0002.58
2021-08-20 06:42:00,,0824.1,5.00,0.00,29.9,28.9,00.0,38.9,31.7,27.6,0000.0,0004.79,0003.13,0002.59
2021-08-20 06:43:00,,0824.1,5.00,0.00,29.9,29.0,00.0,38.9,31.7,28.3,0000.0,0004.65,0003.14,0002.61
2021-08-20 06:44:00,,0824.1,4.99,0.00,29.9,29.0,00.0,39.0,31.8,28.1,0000.0,0004.56,0003.12,0002.63
2021-08-20 06:45:00,,0824.1,5.00,0.00,30.0,29.1,00.0,39.0,31.8,27.9,0000.0,0004.78,0003.13,0002.60
2021-08-20 06:46:00,,0824.1,5.01,0.00,30.0,29.1,00.0,39.0,31.9,27.9,0000.0,0004.85,0003.13,0002.59
2021-08-20 06:47:00,,0824.1,4.99,0.00,30.0,29.2,00.0,39.0,31.9,27.8,0000.0,0004.77,0003.10,0002.57
2021-08-20 06:48:00,,0824.1,5.01,0.00,30.0,29.2,00.0,39.0,31.9,27.8,0000.0,0004.68,0003.07,0002.56
2021-08-20 06:49:00,,0824.1,5.00,0.00,30.1,29.3,00.0,39.1,31.9,27.7,0000.0,0004.60,0003.08,0002.57
2021-08-20 06:50:00,,0824.1,4.99,0.00,30.0,28.3,00.0,39.1,31.7,27.6,0000.0,0004.58,0003.11,0002.58
2021-08-20 06:51:00,,0824.1,5.00,0.00,29.9,26.7,00.0,39.0,31.2,27.7,0000.0,0004.53,0003.10,0002.56
2021-08-20 06:52:00,,0824.1,5.00,0.00,29.8,26.4,00.0,39.0,31.1,27.8,0000.0,0004.64,0003.12,0002.57
2021-08-20 06:53:00,,0824.1,5.01,0.00,29.7,26.7,00.0,39.0,31.1,28.0,0000.0,0004.65,0003.12,0002.59
2021-08-20 06:54:00,,0824.1,5.00,0.00,29.6,27.1,00.0,38.9,31.2,27.9,0000.0,0004.70,0003.13,0002.59
2021-08-20 06:55:00,,0824.1,5.00,0.00,29.6,27.5,00.0,38.9,31.3,28.0,0000.0,0004.77,0003.14,0002.58
2021-08-20 06:56:00,,0824.1,5.00,0.00,29.6,27.8,00.0,38.9,31.3,28.3,0000.0,0004.50,0003.08,0002.56
2021-08-20 06:57:00,,0824.1,5.00,0.00,29.7,28.0,00.0,38.9,31.4,28.3,0000.0,0004.39,0003.09,0002.57
2021-08-20 06:58:00,,0824.1,5.01,0.00,29.7,28.2,00.0,38.8,31.4,28.6,0000.0,0004.53,0003.11,0002.58
2021-08-20 06:59:00,,0824.1,5.00,0.00,29.7,28.4,00.0,38.8,31.5,29.0,0000.0,0004.51,0003.09,0002.57
